Find Starlink 31426

NORAD ID: 59249 Int'l Des: 2024-049 Owner: SPXS Country: US Constellation: starlink operational
LEOCIRCULAR

現在のビュー

3D地球を読み込み中...

About Starlink 31426

Starlink 31426 (NORAD 59249) is a starlink constellation satellite (v2 mini) launched Mar 16, 2024 by SPXS of US. It operates in LEO, CIRCULAR orbit with a mass of 730.00 kg.

Starlink 31426について

説明を読み込み中...

次回通過

Passes for default location (London). Set your location on the main map for personalized predictions.

高度履歴

Loading altitude history...

軌道要素

1 59249U 24049U 26177.88460265 .00024792 00000-0 91137-3 0 9998
2 59249 43.0011 247.0578 0000950 100.5663 259.5296 15.27437454129099
Epoch: Jun 26, 2026 • Age: 13 hours

現在のステータス

高度 487.7 km
速度 7.62 km/s
衛星直下点 -19.19°S, 9.7°E
打ち上げ日 Mar 16, 2024
運用期間 2.2 years
タイプ internet

技術仕様

分類 Payload
質量 730.00 kg
乾燥質量 700.00 kg
総質量 730.00 kg
長さ 0.30 m
直径 4.10 m
スパン 29.00 m
形状 Box + pan
製造者 SPXS
バスタイプ Starlink V2M
フェーズステータス In Orbit
所有者/国 SPXS/US

Most Searched